| time (UTC) | temp F | wind direction | speed knots | gust knots | rain 1hr in | rain 24hr in | rain mn in | humidity % | barometer mb |
| 20260508065800 | 51 | 195 | 3.5 | 7.0 | 0.00 | 0.00 | 0.00 | 81 | 1016.2 |
| 20260508064732 | 51 | 195 | 4.3 | 7.0 | 0.00 | 0.00 | 0.00 | 82 | 1016.2 |
| 20260508063729 | 51 | 216 | 3.5 | 5.2 | 0.00 | 0.00 | 0.00 | 82 | 1016.4 |
| 20260508062714 | 50 | 181 | 3.5 | 7.0 | 0.00 | 0.00 | 0.00 | 82 | 1016.3 |
| 20260508055353 | 49 | 190 | 3.5 | 6.1 | 0.00 | 0.00 | 0.00 | 82 | 1015.8 |
| 20260508054411 | 49 | 208 | 3.5 | 8.7 | 0.00 | 0.00 | 0.00 | 82 | 1015.8 |
| 20260508053410 | 49 | 186 | 5.2 | 8.7 | 0.00 | 0.00 | 0.00 | 82 | 1015.7 |
| 20260508051214 | 49 | 212 | 2.6 | 7.0 | 0.00 | 0.00 | 0.00 | 82 | 1015.6 |
| 20260508050202 | 49 | 179 | 3.5 | 7.0 | 0.00 | 0.00 | 0.00 | 82 | 1015.6 |
| 20260508045157 | 49 | 197 | 3.5 | 7.0 | 0.00 | 0.00 | 0.00 | 82 | 1015.5 |
| 20260508044125 | 49 | 190 | 3.5 | 5.2 | 0.00 | 0.00 | 0.00 | 81 | 1015.6 |
| 20260508043143 | 49 | 205 | 3.5 | 5.2 | 0.00 | 0.00 | 0.00 | 81 | 1015.6 |
| 20260508042151 | 49 | 198 | 3.5 | 7.0 | 0.00 | 0.00 | 0.00 | 81 | 1015.5 |
| 20260508041119 | 49 | 203 | 3.5 | 7.0 | 0.00 | 0.00 | 0.00 | 81 | 1015.5 |
| 20260508040111 | 50 | 194 | 3.5 | 5.2 | 0.00 | 0.00 | 0.00 | 80 | 1015.4 |
| 20260508035039 | 50 | 189 | 3.5 | 7.0 | 0.00 | 0.00 | 0.00 | 80 | 1015.3 |
| 20260508034038 | 50 | 199 | 3.5 | 7.0 | 0.00 | 0.00 | 0.00 | 80 | 1015.3 |
| 20260508033032 | 50 | 193 | 3.5 | 5.2 | 0.00 | 0.00 | 0.00 | 80 | 1015.4 |
| 20260508032050 | 50 | 200 | 3.5 | 6.1 | 0.00 | 0.00 | 0.00 | 80 | 1015.3 |
| 20260508031034 | 50 | 192 | 3.5 | 6.1 | 0.00 | 0.00 | 0.00 | 80 | 1015.4 |
| 20260508030032 | 50 | 197 | 3.5 | 4.3 | 0.00 | 0.00 | 0.00 | 80 | 1015.4 |
| 20260508025048 | 50 | 196 | 2.6 | 4.3 | 0.00 | 0.00 | 0.00 | 80 | 1015.4 |
| 20260508024103 | 50 | 195 | 3.5 | 4.3 | 0.00 | 0.00 | 0.00 | 79 | 1015.5 |
| 20260508023048 | 50 | 190 | 3.5 | 6.1 | 0.00 | 0.00 | 0.00 | 79 | 1015.5 |
| 20260508022107 | 50 | 187 | 3.5 | 6.1 | 0.00 | 0.00 | 0.00 | 79 | 1015.5 |
| 20260508021112 | 50 | 208 | 3.5 | 5.2 | 0.00 | 0.00 | 0.00 | 79 | 1015.4 |
| 20260508020054 | 50 | 199 | 3.5 | 5.2 | 0.00 | 0.00 | 0.00 | 78 | 1015.4 |
| 20260508015117 | 50 | 197 | 3.5 | 5.2 | 0.00 | 0.00 | 0.00 | 79 | 1015.4 |
| 20260508014111 | 50 | 200 | 3.5 | 4.3 | 0.00 | 0.00 | 0.00 | 78 | 1015.5 |
| 20260508013113 | 51 | 189 | 3.5 | 6.1 | 0.00 | 0.00 | 0.00 | 78 | 1015.4 |
| 20260508012135 | 51 | 200 | 3.5 | 6.1 | 0.00 | 0.00 | 0.00 | 78 | 1015.4 |
| 20260508004851 | 51 | 210 | 3.5 | 5.2 | 0.00 | 0.00 | 0.00 | 77 | 1015.5 |
| 20260508003851 | 51 | 196 | 3.5 | 6.1 | 0.00 | 0.00 | 0.00 | 76 | 1015.4 |
| 20260508002822 | 51 | 191 | 3.5 | 6.1 | 0.00 | 0.00 | 0.00 | 76 | 1015.3 |
| 20260508001826 | 51 | 208 | 3.5 | 5.2 | 0.00 | 0.00 | 0.00 | 75 | 1015.5 |
| 20260508000837 | 51 | 196 | 3.5 | 7.0 | 0.00 | 0.00 | 0.00 | 75 | 1015.4 |
| 20260507235858 | 52 | 198 | 3.5 | 7.0 | 0.00 | 0.00 | 0.00 | 74 | 1015.4 |
| 20260507234916 | 52 | 189 | 3.5 | 7.0 | 0.00 | 0.00 | 0.00 | 74 | 1015.4 |
| 20260507233846 | 52 | 197 | 3.5 | 5.2 | 0.00 | 0.00 | 0.00 | 74 | 1015.4 |
| 20260507232852 | 52 | 194 | 3.5 | 6.1 | 0.00 | 0.00 | 0.00 | 73 | 1015.5 |
| 20260507231911 | 52 | 220 | 3.5 | 7.0 | 0.00 | 0.00 | 0.00 | 73 | 1015.5 |
| 20260507230931 | 52 | 204 | 3.5 | 7.0 | 0.00 | 0.00 | 0.00 | 73 | 1015.4 |
| 20260507225859 | 52 | 204 | 3.5 | 7.0 | 0.00 | 0.00 | 0.00 | 72 | 1015.5 |
| 20260507224918 | 53 | 208 | 4.3 | 7.0 | 0.00 | 0.00 | 0.00 | 72 | 1015.4 |
| 20260507223923 | 53 | 182 | 3.5 | 5.2 | 0.00 | 0.00 | 0.00 | 72 | 1015.5 |
| 20260507220602 | 53 | 188 | 4.3 | 8.7 | 0.00 | 0.00 | 0.00 | 71 | 1015.6 |
| 20260507215614 | 53 | 193 | 4.3 | 8.7 | 0.00 | 0.00 | 0.00 | 70 | 1015.4 |
| 20260507214554 | 54 | 186 | 6.1 | 7.0 | 0.00 | 0.00 | 0.00 | 70 | 1015.5 |
| 20260507213949 | 54 | 181 | 4.3 | 10.4 | 0.00 | 0.00 | 0.00 | 70 | 1015.5 |
| 20260507212949 | 54 | 196 | 5.2 | 10.4 | 0.00 | 0.00 | 0.00 | 69 | 1015.5 |
| 20260507212013 | 54 | 182 | 5.2 | 9.6 | 0.00 | 0.00 | 0.00 | 69 | 1015.4 |
| 20260507210959 | 54 | 178 | 4.3 | 9.6 | 0.00 | 0.00 | 0.00 | 68 | 1015.3 |
| 20260507205946 | 54 | 172 | 5.2 | 7.0 | 0.00 | 0.00 | 0.00 | 68 | 1015.2 |
| 20260507205653 | 54 | 189 | 4.3 | 8.7 | 0.00 | 0.00 | 0.00 | 68 | 1015.1 |
| 20260507204632 | 54 | 202 | 4.3 | 9.6 | 0.00 | 0.00 | 0.00 | 67 | 1015.1 |
| 20260507203637 | 55 | 190 | 4.3 | 9.6 | 0.00 | 0.00 | 0.00 | 67 | 1015.1 |
| 20260507202657 | 55 | 182 | 4.3 | 7.8 | 0.00 | 0.00 | 0.00 | 66 | 1014.8 |
| 20260507201656 | 55 | 193 | 4.3 | 7.8 | 0.00 | 0.00 | 0.00 | 65 | 1014.8 |
| 20260507200634 | 55 | 199 | 4.3 | 12.2 | 0.00 | 0.00 | 0.00 | 64 | 1014.6 |
| 20260507193338 | 56 | 192 | 3.5 | 7.8 | 0.00 | 0.00 | 0.00 | 62 | 1014.3 |
| 20260507192341 | 56 | 206 | 3.5 | 6.1 | 0.00 | 0.00 | 0.00 | 61 | 1014.4 |
| 20260507191311 | 56 | 178 | 4.3 | 9.6 | 0.00 | 0.00 | 0.00 | 61 | 1014.3 |
| 20260507190246 | 56 | 182 | 3.5 | 7.8 | 0.00 | 0.00 | 0.00 | 60 | 1014.3 |
| 20260507185246 | 57 | 200 | 3.5 | 7.8 | 0.00 | 0.00 | 0.00 | 60 | 1014.4 |
| 20260507184218 | 57 | 183 | 3.5 | 7.0 | 0.00 | 0.00 | 0.00 | 58 | 1014.2 |
| 20260507183211 | 57 | 229 | 3.5 | 7.0 | 0.00 | 0.00 | 0.00 | 58 | 1014.2 |
| 20260507181024 | 58 | 196 | 4.3 | 7.8 | 0.00 | 0.00 | 0.00 | 56 | 1014.1 |
| 20260507175955 | 58 | 190 | 4.3 | 7.0 | 0.00 | 0.00 | 0.00 | 56 | 1014.0 |
| 20260507175007 | 59 | 189 | 3.5 | 7.8 | 0.00 | 0.00 | 0.00 | 55 | 1013.9 |
| 20260507173939 | 59 | 190 | 3.5 | 7.8 | 0.00 | 0.00 | 0.00 | 55 | 1014.0 |
| 20260507172946 | 59 | 192 | 4.3 | 7.8 | 0.00 | 0.00 | 0.00 | 54 | 1013.9 |
| 20260507171921 | 60 | 217 | 5.2 | 8.7 | 0.00 | 0.00 | 0.00 | 52 | 1013.9 |
| 20260507170904 | 61 | 177 | 5.2 | 8.7 | 0.00 | 0.00 | 0.00 | 51 | 1013.9 |
| 20260507165607 | 60 | 204 | 3.5 | 8.7 | 0.00 | 0.00 | 0.00 | 53 | 1013.9 |
| 20260507164626 | 60 | 202 | 4.3 | 8.7 | 0.00 | 0.00 | 0.00 | 53 | 1014.1 |
| 20260507163634 | 61 | 211 | 4.3 | 7.0 | 0.00 | 0.00 | 0.00 | 53 | 1014.1 |
| 20260507160309 | 63 | 197 | 4.3 | 9.6 | 0.00 | 0.00 | 0.00 | 50 | 1013.9 |
| 20260507155247 | 63 | 203 | 5.2 | 9.6 | 0.00 | 0.00 | 0.00 | 49 | 1014.1 |
| 20260507154311 | 63 | 195 | 4.3 | 7.0 | 0.00 | 0.00 | 0.00 | 51 | 1014.1 |
| 20260507152205 | 64 | 180 | 4.3 | 10.4 | 0.00 | 0.00 | 0.00 | 50 | 1014.1 |
| 20260507151212 | 63 | 212 | 5.2 | 10.4 | 0.00 | 0.00 | 0.00 | 49 | 1014.3 |
| 20260507145012 | 62 | 218 | 5.2 | 7.8 | 0.00 | 0.00 | 0.00 | 50 | 1014.4 |
| 20260507144021 | 62 | 185 | 5.2 | 7.8 | 0.00 | 0.00 | 0.00 | 50 | 1014.6 |
| 20260507143002 | 63 | 189 | 4.3 | 7.8 | 0.00 | 0.00 | 0.00 | 48 | 1014.7 |
| 20260507142019 | 63 | 202 | 5.2 | 9.6 | 0.00 | 0.00 | 0.00 | 48 | 1014.7 |
| 20260507140952 | 62 | 167 | 5.2 | 9.6 | 0.00 | 0.00 | 0.00 | 53 | 1014.7 |
| 20260507135922 | 61 | 142 | 3.5 | 8.7 | 0.00 | 0.00 | 0.00 | 53 | 1014.8 |
| 20260507134850 | 61 | 211 | 4.3 | 8.7 | 0.00 | 0.00 | 0.00 | 50 | 1015.0 |
| 20260507133827 | 62 | 192 | 3.5 | 7.8 | 0.00 | 0.00 | 0.00 | 49 | 1015.0 |
| 20260507132805 | 63 | 214 | 5.2 | 7.8 | 0.00 | 0.00 | 0.00 | 49 | 1014.9 |
| 20260507131816 | 62 | 191 | 5.2 | 5.2 | 0.00 | 0.00 | 0.00 | 53 | 1015.0 |
| 20260507130756 | 62 | 197 | 5.2 | 9.6 | 0.00 | 0.00 | 0.00 | 50 | 1015.0 |
| 20260507125815 | 63 | 182 | 6.1 | 9.6 | 0.00 | 0.00 | 0.00 | 49 | 1014.8 |
| 20260507124838 | 64 | 192 | 5.2 | 11.3 | 0.00 | 0.00 | 0.00 | 49 | 1014.9 |
| 20260507123856 | 64 | 201 | 5.2 | 11.3 | 0.00 | 0.00 | 0.00 | 47 | 1015.1 |
| 20260507122911 | 64 | 178 | 5.2 | 8.7 | 0.00 | 0.00 | 0.00 | 51 | 1014.8 |
| 20260507120804 | 61 | 178 | 4.3 | 9.6 | 0.00 | 0.00 | 0.00 | 51 | 1015.1 |
| 20260507115826 | 63 | 221 | 5.2 | 7.8 | 0.00 | 0.00 | 0.00 | 52 | 1015.1 |
| 20260507114846 | 62 | 218 | 5.2 | 9.6 | 0.00 | 0.00 | 0.00 | 54 | 1015.2 |
| 20260507113908 | 60 | 210 | 4.3 | 9.6 | 0.00 | 0.00 | 0.00 | 57 | 1015.3 |
| 20260507112901 | 60 | 210 | 5.2 | 9.6 | 0.00 | 0.00 | 0.00 | 58 | 1015.4 |
| 20260507111915 | 59 | 185 | 5.2 | 7.8 | 0.00 | 0.00 | 0.00 | 58 | 1015.4 |
| 20260507110855 | 59 | 215 | 5.2 | 8.7 | 0.00 | 0.00 | 0.00 | 61 | 1015.4 |
| 20260507105848 | 59 | 193 | 5.2 | 9.6 | 0.00 | 0.00 | 0.00 | 59 | 1015.6 |
| 20260507104909 | 58 | 186 | 5.2 | 9.6 | 0.00 | 0.00 | 0.00 | 66 | 1015.6 |
| 20260507103918 | 57 | 199 | 4.3 | 7.0 | 0.00 | 0.00 | 0.00 | 66 | 1015.7 |
| 20260507102936 | 56 | 201 | 5.2 | 8.7 | 0.00 | 0.00 | 0.00 | 67 | 1015.8 |
| 20260507101902 | 56 | 171 | 5.2 | 11.3 | 0.00 | 0.00 | 0.00 | 68 | 1015.8 |
| 20260507100922 | 55 | 169 | 5.2 | 11.3 | 0.00 | 0.00 | 0.00 | 68 | 1015.8 |
| 20260507095912 | 55 | 195 | 5.2 | 9.6 | 0.00 | 0.00 | 0.00 | 70 | 1015.7 |
| 20260507094926 | 55 | 196 | 4.3 | 9.6 | 0.00 | 0.00 | 0.00 | 71 | 1015.7 |
| 20260507093859 | 54 | 192 | 4.3 | 7.8 | 0.00 | 0.00 | 0.00 | 73 | 1015.7 |
| 20260507092911 | 53 | 251 | 4.3 | 7.8 | 0.00 | 0.00 | 0.00 | 73 | 1015.9 |
| 20260507091854 | 53 | 179 | 5.2 | 7.8 | 0.00 | 0.00 | 0.00 | 74 | 1015.8 |
| 20260507090914 | 52 | 182 | 5.2 | 7.0 | 0.00 | 0.00 | 0.00 | 75 | 1015.9 |
| 20260507090356 | 52 | 212 | 5.2 | 10.4 | 0.00 | 0.00 | 0.00 | 74 | 1016.0 |
| 20260507085329 | 52 | 224 | 5.2 | 10.4 | 0.00 | 0.00 | 0.00 | 77 | 1015.8 |
| 20260507084309 | 51 | 189 | 4.3 | 9.6 | 0.00 | 0.00 | 0.00 | 79 | 1016.0 |
| 20260507083330 | 50 | 191 | 5.2 | 9.6 | 0.00 | 0.00 | 0.00 | 79 | 1016.0 |
| 20260507082314 | 50 | 193 | 4.3 | 7.8 | 0.00 | 0.00 | 0.00 | 81 | 1016.0 |
| 20260507081243 | 49 | 215 | 4.3 | 12.2 | 0.00 | 0.00 | 0.00 | 82 | 1015.9 |
| 20260507080300 | 48 | 187 | 4.3 | 12.2 | 0.00 | 0.00 | 0.00 | 83 | 1015.8 |
| 20260507075249 | 47 | 187 | 4.3 | 7.8 | 0.00 | 0.00 | 0.00 | 85 | 1015.9 |
| 20260507074247 | 47 | 237 | 4.3 | 7.0 | 0.00 | 0.00 | 0.00 | 85 | 1016.0 |
| 20260507073255 | 46 | 198 | 3.5 | 7.0 | 0.00 | 0.00 | 0.00 | 86 | 1015.9 |
| 20260507071133 | 45 | 198 | 3.5 | 7.0 | 0.00 | 0.00 | 0.00 | 87 | 1016.0 |